Location: Austin
(30.3000°N, 97.7500°W)
Time: 04:17:46
(UTC-05:00)

Cosmos 923 Rocket - Pass Details

Date: 01 October 2024
Orbit: 755 x 783 km, 74.0° (Epoch: 06 October)

Event Time Altitude Azimuth Distance (km) Brightness Sun altitude
Rises 20:17:45 0° 197° (SSW) 3,196 7.4 -14.3°
Reaches altitude 10° 20:20:06 10° 198° (SSW) 2,276 6.6 -14.8°
Maximum altitude 20:25:16 81° 286° (WNW) 773 4.1 -15.9°
Drops below altitude 10° 20:30:30 10° 14° (NNE) 2,304 6.4 -17.0°
Sets 20:32:54 0° 15° (NNE) 3,238 7.2 -17.5°
